ZL1UTH Weather Reports


Display with metric or nautical units.
time (UTC)temp
F
wind
direction
speed
MPH
gust
MPH
rain 1hr
in
rain 24hr
in
rain mn
in
humidity
%
barometer
mb
20260504004505 66 0 0.0 0.0 0.00 0.00 0.00 55 1043.3
20260504004203 65 0 0.0 0.0 0.00 0.00 0.00 56 1043.4
20260504003904 65 0 0.0 0.0 0.00 0.00 0.00 56 1043.4
20260504003604 63 0 0.0 0.0 0.00 0.00 0.00 57 1043.3
20260504003304 62 321 0.0 2.0 0.00 0.00 0.00 59 1043.4
20260504003004 61 320 0.0 2.0 0.00 0.00 0.00 59 1043.4
20260504002703 62 320 0.0 2.0 0.00 0.00 0.00 58 1043.4
20260504002403 62 314 0.0 2.0 0.00 0.00 0.00 59 1043.3
20260504002104 62 0 0.0 0.0 0.00 0.00 0.00 59 1043.5
20260504001803 62 248 0.0 1.0 0.00 0.00 0.00 59 1043.6
20260504001504 62 248 0.0 1.0 0.00 0.00 0.00 59 1043.6
20260504000904 62 272 0.0 1.0 0.00 0.00 0.00 59 1043.7
20260504000605 62 200 0.0 2.0 0.00 0.00 0.00 58 1043.7
20260504000006 62 252 0.0 4.0 0.00 0.00 0.00 56 1043.7
20260503235404 65 219 0.0 4.0 0.00 0.00 0.00 53 1043.8
20260503235104 65 215 1.0 4.0 0.00 0.00 0.00 54 1044.0
20260503234804 64 266 1.0 4.0 0.00 0.00 0.00 59 1043.9
20260503234504 63 304 1.0 4.0 0.00 0.00 0.00 59 1044.0
20260503234203 62 317 0.0 4.0 0.00 0.00 0.00 60 1043.9
20260503233603 64 319 2.0 4.0 0.00 0.00 0.00 58 1043.9
20260503233304 65 316 2.0 4.0 0.00 0.00 0.00 57 1044.0
20260503232704 64 331 0.0 3.0 0.00 0.00 0.00 63 1044.0
20260503232104 60 19 0.0 3.0 0.00 0.00 0.00 70 1044.1
20260503231504 60 24 0.0 3.0 0.00 0.00 0.00 70 1044.2
20260503231204 60 9 0.0 3.0 0.00 0.00 0.00 69 1044.1
20260503230905 61 348 2.0 2.0 0.00 0.00 0.00 69 1044.2
20260503230604 61 345 1.0 2.0 0.00 0.00 0.00 70 1044.2
20260503230303 60 1 0.0 2.0 0.00 0.00 0.00 70 1044.3
20260503230004 60 339 0.0 2.0 0.00 0.00 0.00 71 1044.2
20260503225704 60 346 0.0 2.0 0.00 0.00 0.00 71 1044.2
20260503225404 59 340 0.0 2.0 0.00 0.00 0.00 72 1044.3
20260503225104 59 332 0.0 2.0 0.00 0.00 0.00 73 1044.3
20260503224803 58 343 0.0 2.0 0.00 0.00 0.00 75 1044.4
20260503224505 58 358 1.0 2.0 0.00 0.00 0.00 74 1044.3
20260503224206 57 1 0.0 2.0 0.00 0.00 0.00 75 1044.4
20260503223605 57 8 0.0 2.0 0.00 0.00 0.00 76 1044.5
20260503223303 57 23 0.0 2.0 0.00 0.00 0.00 77 1044.6
20260503223004 57 0 0.0 0.0 0.00 0.00 0.00 80 1044.5
20260503222405 56 0 0.0 0.0 0.00 0.00 0.00 80 1044.6
20260503222104 56 0 0.0 0.0 0.00 0.00 0.00 81 1044.7
20260503221803 55 0 0.0 0.0 0.00 0.00 0.00 81 1044.7
20260503221504 55 0 0.0 0.0 0.00 0.00 0.00 83 1044.6
20260503221204 55 0 0.0 0.0 0.00 0.00 0.00 84 1044.6
20260503220905 55 15 0.0 2.0 0.00 0.00 0.00 84 1044.7
20260503220303 54 70 0.0 2.0 0.00 0.00 0.00 88 1044.7
20260503220004 54 142 0.0 1.0 0.00 0.00 0.00 90 1044.8
20260503215404 53 117 0.0 1.0 0.00 0.00 0.00 92 1044.8
20260503215104 53 68 0.0 1.0 0.00 0.00 0.00 93 1044.8
20260503214804 53 1 0.0 1.0 0.00 0.00 0.00 93 1044.8
20260503214504 52 0 0.0 0.0 0.00 0.00 0.00 95 1044.8
20260503214203 52 0 0.0 0.0 0.00 0.00 0.00 95 1044.8
20260503213904 52 0 0.0 0.0 0.00 0.00 0.00 96 1044.8
20260503212703 51 0 0.0 0.0 0.00 0.00 0.00 98 1044.9
20260503212404 51 0 0.0 0.0 0.00 0.00 0.00 99 1044.9
20260503212104 51 0 0.0 0.0 0.00 0.00 0.00 99 1044.9
20260503211804 51 0 0.0 0.0 0.00 0.00 0.00 99 1044.9
20260503211504 51 0 0.0 0.0 0.00 0.00 0.00 99 1044.8
20260503211203 50 45 0.0 2.0 0.00 0.00 0.00 99 1044.8
20260503210904 49 45 0.0 2.0 0.00 0.00 0.00 99 1044.8
20260503210304 49 45 0.0 2.0 0.00 0.00 0.00 99 1044.7
20260503210004 49 0 0.0 0.0 0.00 0.00 0.00 99 1044.6
20260503205705 49 0 0.0 0.0 0.00 0.00 0.00 99 1044.6
20260503205104 48 0 0.0 0.0 0.00 0.00 0.00 99 1044.5
20260503204803 47 0 0.0 0.0 0.00 0.00 0.00 99 1044.5
20260503204504 47 0 0.0 0.0 0.00 0.00 0.00 99 1044.8
20260503204203 47 0 0.0 0.0 0.00 0.00 0.00 99 1044.6
20260503203603 47 45 0.0 2.0 0.00 0.00 0.00 99 1044.6
20260503203304 47 45 0.0 2.0 0.00 0.00 0.00 99 1044.7
20260503203004 47 45 0.0 2.0 0.00 0.00 0.00 99 1044.6
20260503202704 47 8 0.0 2.0 0.00 0.00 0.00 99 1044.5
20260503202404 47 1 0.0 2.0 0.00 0.00 0.00 99 1044.4
20260503202104 47 1 0.0 2.0 0.00 0.00 0.00 99 1044.4
20260503201803 47 0 0.0 0.0 0.00 0.00 0.00 99 1044.4
20260503201206 46 0 0.0 0.0 0.00 0.00 0.00 99 1044.4
20260503200603 46 0 0.0 0.0 0.00 0.00 0.00 97 1044.2
20260503200003 46 0 0.0 0.0 0.00 0.00 0.00 97 1044.2
20260503195704 46 0 0.0 0.0 0.00 0.00 0.00 97 1044.1
20260503195403 46 0 0.0 0.0 0.00 0.00 0.00 97 1044.0
20260503195104 46 0 0.0 0.0 0.00 0.00 0.00 97 1044.0
20260503194804 45 0 0.0 0.0 0.00 0.00 0.00 97 1044.0
20260503194504 45 0 0.0 0.0 0.00 0.00 0.00 97 1043.9
20260503194204 45 0 0.0 0.0 0.00 0.00 0.00 97 1043.8
20260503193904 45 0 0.0 0.0 0.00 0.00 0.00 97 1043.9
20260503193604 45 0 0.0 0.0 0.00 0.00 0.00 97 1044.0
20260503193304 45 0 0.0 0.0 0.00 0.00 0.00 97 1043.9
20260503192704 45 0 0.0 0.0 0.00 0.00 0.00 97 1043.6
20260503192403 45 0 0.0 0.0 0.00 0.00 0.00 97 1043.8
20260503192104 44 0 0.0 0.0 0.00 0.00 0.00 98 1043.9
20260503191804 44 0 0.0 0.0 0.00 0.00 0.00 98 1043.8
20260503191504 44 0 0.0 0.0 0.00 0.00 0.00 98 1043.7
20260503191204 44 0 0.0 0.0 0.00 0.00 0.00 98 1043.8
20260503190604 44 0 0.0 0.0 0.00 0.00 0.00 98 1043.5
20260503190304 44 0 0.0 0.0 0.00 0.00 0.00 98 1043.4
20260503190004 44 0 0.0 0.0 0.00 0.00 0.00 98 1043.6
20260503185704 44 0 0.0 0.0 0.00 0.00 0.00 98 1043.6
20260503185403 44 0 0.0 0.0 0.00 0.00 0.00 98 1043.5
20260503185104 44 0 0.0 0.0 0.00 0.00 0.00 98 1043.5
20260503184803 44 0 0.0 0.0 0.00 0.00 0.00 98 1043.5
20260503184504 44 0 0.0 0.0 0.00 0.00 0.00 98 1043.5
20260503183903 44 0 0.0 0.0 0.00 0.00 0.00 98 1043.3
20260503183604 44 0 0.0 0.0 0.00 0.00 0.00 98 1043.6
20260503183303 44 0 0.0 0.0 0.00 0.00 0.00 98 1043.4
20260503183004 44 0 0.0 0.0 0.00 0.00 0.00 98 1043.3
20260503182704 44 0 0.0 0.0 0.00 0.00 0.00 98 1043.4
20260503182404 44 0 0.0 0.0 0.00 0.00 0.00 98 1043.5
20260503182103 44 0 0.0 0.0 0.00 0.00 0.00 98 1043.4
20260503181804 44 0 0.0 0.0 0.00 0.00 0.00 98 1043.4
20260503181505 44 341 0.0 2.0 0.00 0.00 0.00 98 1043.4
20260503181204 44 348 0.0 2.0 0.00 0.00 0.00 98 1043.4
20260503180903 44 348 0.0 2.0 0.00 0.00 0.00 98 1043.3
20260503180606 44 19 0.0 2.0 0.00 0.00 0.00 98 1043.4
20260503180304 44 0 0.0 0.0 0.00 0.00 0.00 98 1043.4
20260503175703 44 0 0.0 0.0 0.00 0.00 0.00 98 1043.5
20260503175404 44 0 0.0 0.0 0.00 0.00 0.00 98 1043.4
20260503175104 44 0 0.0 0.0 0.00 0.00 0.00 98 1043.5
20260503174504 44 0 0.0 0.0 0.00 0.00 0.00 98 1043.4
20260503173903 44 0 0.0 0.0 0.00 0.00 0.00 98 1043.5
20260503173604 44 0 0.0 0.0 0.00 0.00 0.00 98 1043.4
20260503173004 44 0 0.0 0.0 0.00 0.00 0.00 98 1043.5
20260503172704 44 0 0.0 0.0 0.00 0.00 0.00 98 1043.5
20260503172404 44 0 0.0 0.0 0.00 0.01 0.00 98 1043.7
20260503172103 44 0 0.0 0.0 0.00 0.01 0.00 98 1043.7
20260503171803 44 0 0.0 0.0 0.00 0.01 0.00 98 1043.8
20260503171505 44 0 0.0 0.0 0.00 0.01 0.00 98 1043.8
20260503171206 44 0 0.0 0.0 0.00 0.01 0.00 98 1043.7
20260503170604 44 0 0.0 0.0 0.00 0.01 0.00 98 1043.8
20260503170303 44 0 0.0 0.0 0.00 0.01 0.00 98 1043.8
20260503150905 42 335 0.0 2.0 0.00 0.01 0.00 99 1044.4
20260503150604 42 334 0.0 2.0 0.00 0.01 0.00 99 1044.5
20260503140304 41 22 1.0 2.0 0.00 0.01 0.00 99 1044.9
20260503131204 40 1 0.0 1.0 0.00 0.01 0.00 99 1044.7
20260503130903 40 0 0.0 0.0 0.00 0.01 0.00 99 1044.7
20260503130604 40 0 0.0 0.0 0.00 0.01 0.00 99 1044.6
20260503130303 40 0 0.0 0.0 0.00 0.01 0.00 99 1044.7
20260503110306 41 0 0.0 0.0 0.00 0.01 0.01 99 1044.1
20260503081204 45 0 0.0 0.0 0.00 0.01 0.01 97 1042.6
20260503080904 45 0 0.0 0.0 0.00 0.01 0.01 97 1042.7
20260503080604 45 0 0.0 0.0 0.00 0.01 0.01 97 1042.7
20260503080304 45 0 0.0 0.0 0.00 0.01 0.01 97 1042.6
20260503072704 46 0 0.0 0.0 0.00 0.01 0.01 95 1042.4
20260503072403 46 0 0.0 0.0 0.00 0.01 0.01 95 1042.4
20260503072104 46 0 0.0 0.0 0.00 0.01 0.01 95 1042.3
20260503071803 46 0 0.0 0.0 0.00 0.01 0.01 94 1042.4
20260503071504 46 0 0.0 0.0 0.00 0.01 0.01 94 1042.4
20260503071203 46 0 0.0 0.0 0.00 0.01 0.01 94 1042.5
20260503070904 47 0 0.0 0.0 0.00 0.01 0.01 94 1042.3
20260503070603 47 0 0.0 0.0 0.00 0.01 0.01 94 1042.3
20260503070304 47 0 0.0 0.0 0.00 0.01 0.01 94 1042.3
20260503060304 51 0 0.0 0.0 0.00 0.01 0.01 87 1041.9
20260503055104 53 0 0.0 0.0 0.00 0.01 0.01 84 1041.8
20260503054204 54 0 0.0 0.0 0.00 0.01 0.01 81 1041.9
20260503053905 54 0 0.0 0.0 0.00 0.01 0.01 81 1041.8
20260503053604 54 0 0.0 0.0 0.00 0.01 0.01 80 1041.8
20260503053307 55 0 0.0 0.0 0.00 0.01 0.01 79 1041.7
20260503052704 56 0 0.0 0.0 0.00 0.01 0.01 77 1041.8
20260503052403 56 0 0.0 0.0 0.00 0.01 0.01 76 1041.7
20260503052104 57 0 0.0 0.0 0.00 0.01 0.01 75 1041.7
20260503051504 59 0 0.0 0.0 0.00 0.01 0.01 71 1041.6
20260503051203 60 0 0.0 0.0 0.00 0.01 0.01 71 1041.7
20260503050904 61 0 0.0 0.0 0.00 0.01 0.01 69 1041.7
20260503050604 63 0 0.0 0.0 0.00 0.01 0.01 67 1041.8
20260503050304 63 0 0.0 0.0 0.00 0.01 0.01 66 1041.6
20260503050005 64 0 0.0 0.0 0.00 0.01 0.01 66 1041.6
20260503045703 64 0 0.0 0.0 0.00 0.01 0.01 65 1041.6
20260503045404 65 0 0.0 0.0 0.00 0.01 0.01 65 1041.6
20260503044504 65 0 0.0 0.0 0.00 0.01 0.01 64 1041.5
20260503044204 65 0 0.0 0.0 0.00 0.01 0.01 64 1041.6
20260503043904 66 0 0.0 0.0 0.00 0.01 0.01 63 1041.7
20260503043604 65 0 0.0 0.0 0.00 0.01 0.01 62 1041.7
20260503043303 65 0 0.0 0.0 0.00 0.01 0.01 62 1041.5
20260503043004 64 0 0.0 0.0 0.00 0.01 0.01 62 1041.5
20260503042706 65 0 0.0 0.0 0.00 0.01 0.01 62 1041.9
20260503042403 64 0 0.0 0.0 0.00 0.01 0.01 63 1041.7
20260503042104 64 0 0.0 0.0 0.00 0.01 0.01 62 1041.5
20260503041804 64 0 0.0 0.0 0.00 0.01 0.01 62 1041.6
20260503041507 65 0 0.0 0.0 0.00 0.01 0.01 62 1041.6
20260503041204 65 0 0.0 0.0 0.00 0.01 0.01 62 1041.6
20260503040904 65 0 0.0 0.0 0.00 0.01 0.01 62 1041.6
20260503040604 66 0 0.0 0.0 0.00 0.01 0.01 61 1041.5
20260503040304 66 0 0.0 0.0 0.00 0.01 0.01 61 1041.4
20260503040003 66 0 0.0 0.0 0.00 0.01 0.01 61 1041.5
20260503035704 66 0 0.0 0.0 0.00 0.01 0.01 62 1041.6
20260503035403 66 0 0.0 0.0 0.00 0.01 0.01 62 1041.7
20260503035105 66 135 0.0 1.0 0.00 0.01 0.01 62 1041.6
20260503034804 66 135 0.0 1.0 0.00 0.01 0.01 62 1041.7
20260503034504 65 135 0.0 1.0 0.00 0.01 0.01 62 1041.6
20260503034205 65 135 0.0 1.0 0.00 0.01 0.01 62 1041.7
20260503033603 67 135 0.0 1.0 0.00 0.01 0.01 59 1041.7
20260503033304 67 270 0.0 1.0 0.00 0.01 0.01 59 1041.7
20260503033003 67 270 0.0 1.0 0.00 0.01 0.01 59 1041.6
20260503032704 67 270 0.0 1.0 0.00 0.01 0.01 58 1041.8
20260503032404 67 270 0.0 1.0 0.00 0.01 0.01 57 1041.8
20260503032103 67 0 0.0 0.0 0.00 0.01 0.01 55 1041.8
20260503031504 69 0 0.0 0.0 0.00 0.01 0.01 53 1042.0
20260503031204 70 0 0.0 0.0 0.00 0.01 0.01 54 1042.0
20260503030906 68 0 0.0 0.0 0.00 0.01 0.01 55 1041.9
20260503030603 68 0 0.0 0.0 0.00 0.01 0.01 55 1041.9
20260503030304 68 0 0.0 0.0 0.00 0.01 0.01 55 1041.8
20260503030005 67 0 0.0 0.0 0.00 0.01 0.01 58 1041.9
20260503025706 67 0 0.0 0.0 0.00 0.01 0.01 57 1041.9
20260503025404 67 0 0.0 0.0 0.00 0.01 0.01 55 1042.0
20260503025104 68 0 0.0 0.0 0.00 0.01 0.01 54 1042.1
20260503024804 69 0 0.0 0.0 0.00 0.01 0.01 55 1041.9
20260503024504 68 0 0.0 0.0 0.00 0.01 0.01 56 1042.0
20260503024204 67 0 0.0 0.0 0.00 0.01 0.01 57 1042.0
20260503023904 67 0 0.0 0.0 0.00 0.01 0.01 57 1042.0
20260503023604 67 251 0.0 1.0 0.00 0.01 0.01 57 1042.0
20260503023303 67 251 0.0 1.0 0.00 0.01 0.01 58 1042.0
20260503022704 67 270 0.0 1.0 0.00 0.01 0.01 57 1042.2
20260503022403 67 0 0.0 0.0 0.00 0.01 0.01 57 1042.1
20260503022103 68 0 0.0 0.0 0.00 0.01 0.01 56 1042.2
20260503021504 67 0 0.0 0.0 0.00 0.01 0.01 59 1042.2
20260503021203 66 0 0.0 0.0 0.00 0.01 0.01 58 1042.2
20260503020904 66 0 0.0 0.0 0.00 0.01 0.01 56 1042.1
20260503020304 67 245 0.0 1.0 0.00 0.01 0.01 56 1042.3
20260503020004 67 210 0.0 1.0 0.00 0.01 0.01 58 1042.2
20260503015703 66 188 0.0 1.0 0.00 0.01 0.01 58 1042.1
20260503015404 66 135 0.0 1.0 0.00 0.01 0.01 56 1042.2
20260503015104 66 135 0.0 1.0 0.00 0.01 0.01 55 1042.2
20260503014804 67 0 0.0 0.0 0.00 0.01 0.01 54 1042.2
20260503014504 68 0 0.0 0.0 0.00 0.01 0.01 53 1042.2
20260503014204 70 0 0.0 0.0 0.00 0.01 0.01 51 1042.3
20260503013604 70 0 0.0 0.0 0.00 0.01 0.01 51 1042.5
20260503013306 70 0 0.0 0.0 0.00 0.01 0.01 52 1042.5
20260503013006 69 0 0.0 0.0 0.00 0.01 0.01 55 1042.6
20260503012703 68 0 0.0 0.0 0.00 0.01 0.01 56 1042.5
20260503012405 67 0 0.0 0.0 0.00 0.01 0.01 56 1042.5
20260503012103 66 0 0.0 0.0 0.00 0.01 0.01 56 1042.6
20260503011804 67 0 0.0 0.0 0.00 0.01 0.01 55 1042.6
20260503011504 67 0 0.0 0.0 0.00 0.01 0.01 57 1042.7
20260503010904 66 0 0.0 0.0 0.00 0.01 0.01 58 1042.8
20260503010604 65 181 0.0 1.0 0.00 0.01 0.01 60 1042.7
20260503010303 65 181 0.0 1.0 0.00 0.01 0.01 60 1042.9
20260503010004 64 181 0.0 1.0 0.00 0.01 0.01 60 1042.8
20260503005703 63 154 0.0 1.0 0.00 0.01 0.01 61 1043.1
20260503005404 63 160 0.0 2.0 0.00 0.01 0.01 60 1042.9
20260503005103 63 156 0.0 2.0 0.00 0.01 0.01 61 1043.0
20260503004804 63 144 0.0 3.0 0.00 0.01 0.01 62 1043.0